Location: Unspecified
(50.7693°N, 0.0000°E)
Time: 18:46:35
(UTC+00:00)

deb Explorer IX - Pass Details

Date: 24 June 2019
Orbit: 540 x 1110 km, 38.8° (Epoch: 24 August)

Event Time Altitude Azimuth Distance (km) Brightness Sun altitude
Rises 16:06:52 0° 258° (WSW) 3,898 ? 36.0°
Reaches altitude 10° 16:09:59 10° 248° (WSW) 2,965 ? 35.5°
Maximum altitude 16:16:04 29° 192° (SSW) 1,900 ? 34.6°
Drops below altitude 10° 16:22:02 10° 136° (SE) 2,889 ? 33.6°
Sets 16:25:02 0° 125° (SE) 3,783 ? 33.2°
